Total_Precipitation_Accumulation
0.16 0.38 0.79 1.24 2.26 2.45 1.66 0.94 0.72 0.61 0.58 0.61 0.60 0.57 0.67 0.90 1.33 2.27 2.18 1.67 1.52 1.83 2.46 3.28 3.60 2.99 2.62 2.57 2.48 2.61 2.59 2.52 2.76 2.96 2.88 2.74 2.78 3.09 3.17 3.11 3.18 3.36 3.33 2.98 2.77 2.53 2.18 2.09 2.17
0.32 0.63 1.09 1.71 2.54 2.16 1.52 0.78 0.55 0.50 0.47 0.52 0.54 0.45 0.47 0.57 0.59 1.01 1.50 1.63 1.48 1.56 1.91 2.43 2.89 2.53 2.36 2.30 2.39 2.49 2.48 2.46 2.60 2.71 2.82 2.81 2.81 3.09 3.28 3.21 3.31 3.49 3.22 2.92 2.69 2.37 1.99 1.85 1.91
0.55 0.93 1.45 2.13 1.78 1.25 1.02 0.57 0.45 0.47 0.57 0.73 0.80 0.55 0.54 0.81 0.76 1.01 1.21 1.24 1.31 1.46 1.71 2.12 2.31 2.25 2.20 2.20 2.39 2.52 2.53 2.47 2.55 2.70 2.80 2.92 3.03 3.14 3.35 3.35 3.46 3.53 3.40 3.04 2.65 2.36 2.03 1.88 1.85
0.70 1.15 1.53 1.69 0.94 0.55 0.52 0.40 0.42 0.53 0.81 0.95 0.93 0.83 0.78 0.84 0.80 0.91 0.91 0.97 1.21 1.51 1.75 1.95 2.07 2.04 2.15 2.16 2.40 2.58 2.67 2.55 2.55 2.74 2.73 2.83 3.08 3.35 3.59 3.59 3.61 3.71 3.50 3.04 2.65 2.34 2.08 1.90 1.84
0.75 1.29 1.81 1.32 0.54 0.37 0.31 0.26 0.30 0.45 0.73 0.99 0.94 1.10 1.26 1.17 0.90 0.83 0.82 0.97 1.17 1.45 1.79 1.91 2.06 2.10 2.29 2.44 2.61 2.72 2.70 2.54 2.51 2.58 2.50 2.63 3.06 3.41 3.63 3.70 3.69 3.67 3.43 2.96 2.57 2.24 2.02 1.88 1.90
0.98 1.60 1.43 0.80 0.48 0.31 0.26 0.24 0.31 0.51 0.73 0.95 1.09 1.28 1.45 1.34 1.05 0.93 0.91 1.11 1.23 1.31 1.67 1.90 2.23 2.31 2.38 2.56 2.90 3.03 2.78 2.64 2.56 2.59 2.47 2.56 2.83 3.24 3.48 3.72 3.73 3.54 3.29 2.82 2.50 2.23 2.00 1.95 2.00
1.01 1.30 0.93 0.51 0.39 0.29 0.27 0.28 0.37 0.51 0.64 0.92 1.20 1.41 1.45 1.55 1.31 1.09 1.20 1.29 1.58 1.36 1.51 1.81 2.22 2.45 2.58 2.69 2.95 3.05 3.01 2.91 2.82 2.77 2.59 2.64 2.84 3.09 3.40 3.73 3.69 3.52 3.32 2.92 2.59 2.32 2.13 2.12 2.10
0.70 0.72 0.50 0.36 0.30 0.24 0.24 0.27 0.36 0.49 0.76 1.01 1.09 1.37 1.56 1.44 1.40 1.36 1.49 1.53 1.70 1.65 1.54 1.65 2.02 2.44 2.58 2.65 2.94 3.12 3.05 3.00 2.97 2.97 2.82 3.01 3.17 3.19 3.33 3.62 3.77 3.61 3.39 3.03 2.82 2.56 2.39 2.37 2.17
0.47 0.60 0.43 0.29 0.21 0.22 0.24 0.31 0.36 0.42 0.61 0.82 0.98 1.05 0.97 1.09 1.38 1.45 1.65 1.82 1.87 1.87 1.87 1.89 1.88 2.00 2.25 2.39 2.69 3.25 3.23 3.14 3.16 3.31 3.40 3.60 3.89 3.84 3.89 3.80 4.01 3.98 3.75 3.59 3.31 3.04 2.70 2.59 2.33
0.38 0.42 0.24 0.15 0.12 0.15 0.19 0.27 0.40 0.50 0.80 1.20 1.29 1.40 1.21 1.30 1.49 1.49 1.55 1.64 1.82 1.97 2.02 2.27 2.11 1.97 2.08 2.13 2.94 3.80 3.67 3.50 3.55 3.74 3.85 4.17 4.31 4.60 4.07 4.38 4.72 4.84 4.76 4.56 4.32 4.13 3.45 2.71 2.26
0.16 0.15 0.12 0.10 0.09 0.09 0.12 0.20 0.23 0.46 0.95 1.43 1.54 1.63 1.55 1.55 1.61 1.66 1.77 1.89 2.04 2.25 2.12 2.10 2.23 2.34 2.40 2.55 2.91 3.41 3.86 3.91 3.92 3.89 3.89 4.18 4.11 4.30 4.34 4.74 5.54 5.65 5.13 4.72 4.84 4.64 3.67 3.12 3.12
0.10 0.09 0.10 0.08 0.07 0.08 0.12 0.20 0.28 0.48 1.03 1.36 1.22 1.18 1.33 1.60 1.74 1.85 2.26 2.52 2.75 2.83 2.80 2.82 2.82 2.86 2.92 2.80 2.80 2.95 3.24 3.31 3.31 3.47 3.55 3.70 4.07 4.26 4.44 4.80 4.89 4.97 4.80 5.05 4.94 4.78 4.14 3.74 3.38
0.08 0.07 0.08 0.08 0.08 0.09 0.14 0.25 0.37 0.55 0.88 0.97 0.88 0.94 1.42 1.69 1.88 2.22 2.47 2.73 2.99 3.34 3.53 4.15 4.11 3.62 3.38 3.20 3.08 2.80 3.02 2.87 2.69 2.88 3.20 3.32 3.59 3.98 4.20 4.11 4.15 3.90 4.12 4.49 4.66 4.22 4.25 4.03 3.89
0.06 0.08 0.10 0.12 0.10 0.11 0.16 0.24 0.54 0.65 0.75 0.87 0.89 1.21 1.69 2.18 2.33 2.62 2.95 3.37 3.64 4.07 4.12 4.40 4.96 4.38 3.78 3.33 3.22 3.03 2.84 2.91 2.79 2.91 2.87 3.15 3.37 3.53 3.66 3.59 3.71 3.61 3.75 3.92 3.95 3.91 4.25 4.22 4.05
0.09 0.13 0.20 0.19 0.16 0.18 0.24 0.48 0.74 0.81 0.79 1.05 1.17 1.43 2.01 2.70 2.65 2.93 3.27 3.76 4.15 4.60 4.77 4.90 5.23 4.97 4.56 4.04 3.56 3.14 2.95 2.78 2.87 3.04 2.84 2.90 3.10 3.19 3.21 3.28 3.32 3.40 3.35 3.47 3.50 3.56 3.87 3.99 3.90
0.12 0.22 0.36 0.29 0.19 0.23 0.34 0.92 1.04 0.87 0.87 1.18 1.41 1.66 2.22 2.92 2.97 3.24 3.71 4.22 4.86 5.25 5.54 5.59 5.32 5.40 5.15 4.59 4.08 3.68 3.46 3.24 3.08 2.94 2.81 2.60 2.67 2.69 2.82 2.78 2.78 2.87 2.88 3.02 3.31 3.36 3.63 3.91 4.00
0.18 0.23 0.34 0.33 0.25 0.25 0.35 0.88 0.93 0.69 0.90 1.20 1.49 1.82 2.21 2.56 3.07 3.64 4.11 4.65 5.51 6.41 6.86 6.64 6.00 5.69 5.33 4.85 4.44 4.33 4.19 3.89 3.51 3.28 3.03 2.86 2.62 2.54 2.65 2.76 2.83 2.52 2.61 2.81 2.72 3.16 3.46 3.80 3.88
0.14 0.19 0.27 0.36 0.29 0.33 0.44 0.57 0.71 0.77 1.01 1.26 1.47 1.67 2.04 2.32 2.71 3.43 4.01 4.64 5.55 6.70 7.42 7.33 6.67 5.93 5.37 5.05 4.75 4.72 4.49 4.12 3.65 3.44 3.28 2.94 2.81 2.60 2.72 2.60 2.45 2.25 2.48 2.87 3.04 3.50 3.56 3.54 3.55
0.09 0.17 0.24 0.31 0.26 0.36 0.48 0.58 0.75 0.92 1.17 1.26 1.38 1.51 1.78 2.09 2.49 3.22 3.89 4.37 4.98 5.73 6.28 6.19 5.59 5.19 4.78 4.30 3.85 3.90 3.83 3.61 3.37 3.16 2.95 2.94 2.88 2.75 2.82 2.56 2.74 2.41 2.47 2.64 2.79 3.14 3.35 3.32 3.29
0.09 0.15 0.21 0.26 0.22 0.24 0.42 0.70 0.86 0.93 1.13 1.13 1.22 1.31 1.51 1.87 2.52 3.30 3.87 3.99 3.97 4.23 4.46 3.96 3.79 3.83 3.56 3.40 3.44 3.43 3.33 3.04 2.89 2.91 3.15 2.82 2.82 2.71 2.52 2.70 2.51 2.48 2.72 2.76 2.91 3.17 3.29 3.26 3.34
0.11 0.14 0.16 0.24 0.24 0.31 0.50 0.93 1.12 1.02 1.07 1.02 1.06 1.29 1.75 2.16 2.59 3.11 3.25 3.23 3.07 3.01 3.00 2.78 2.76 3.10 3.13 3.23 3.32 3.34 3.34 3.17 3.02 2.88 3.05 2.75 2.56 2.52 2.59 2.54 2.62 2.81 2.52 2.78 2.99 3.03 3.28 3.39 3.26
0.10 0.09 0.07 0.10 0.20 0.45 0.63 1.15 1.37 1.27 1.22 0.98 1.10 1.55 2.00 2.30 2.55 2.59 2.15 1.95 2.04 2.12 2.24 2.51 2.63 2.80 2.76 2.93 2.91 2.85 2.65 2.55 2.50 2.51 2.68 2.79 2.53 2.40 2.42 2.56 2.88 3.04 2.78 3.00 2.56 2.75 3.12 3.35 3.27
0.07 0.06 0.05 0.10 0.21 0.49 0.79 1.25 1.53 1.41 1.19 0.98 0.99 1.06 1.44 1.61 1.60 1.53 1.41 1.39 1.57 1.82 2.07 2.41 2.55 2.63 2.57 2.57 2.69 2.89 2.82 2.84 2.73 2.69 2.98 3.02 3.04 2.83 2.49 2.49 2.79 2.99 2.99 3.09 2.92 3.15 2.96 2.91 2.93
0.06 0.08 0.17 0.27 0.45 0.95 1.03 1.14 1.45 1.35 1.14 1.00 0.87 0.80 1.03 1.09 0.97 1.07 1.18 1.39 1.64 1.80 1.88 2.10 2.28 2.50 2.53 2.56 2.64 2.68 2.75 2.95 2.95 2.95 2.83 2.71 2.83 2.81 2.56 2.54 2.87 2.92 2.95 3.13 3.01 2.99 2.86 2.90 2.92
0.06 0.10 0.34 0.72 1.02 1.20 0.90 1.02 1.35 1.03 0.83 0.74 0.62 0.60 0.68 0.75 0.84 1.03 1.19 1.41 1.52 1.59 1.58 1.74 1.82 2.04 2.29 2.38 2.41 2.49 2.64 2.79 2.79 2.89 2.84 2.73 2.52 2.39 2.50 2.65 2.98 2.94 2.93 2.91 3.00 2.93 2.94 3.03 3.06
0.06 0.08 0.18 0.32 0.48 0.69 0.85 1.27 1.36 0.96 0.63 0.50 0.48 0.49 0.53 0.65 0.77 0.88 1.07 1.15 1.22 1.37 1.56 1.73 1.71 1.71 1.78 1.89 2.11 2.26 2.29 2.41 2.46 2.80 2.71 2.67 2.52 2.37 2.47 2.62 2.60 2.59 2.68 2.59 2.90 2.72 2.71 2.85 2.90
0.05 0.05 0.07 0.11 0.18 0.45 0.93 1.21 1.16 0.80 0.61 0.57 0.58 0.63 0.67 0.72 0.85 0.84 0.87 1.08 1.16 1.07 1.16 1.37 1.49 1.58 1.66 1.72 1.92 1.94 1.92 2.02 2.26 2.34 2.22 2.08 2.18 2.29 2.42 2.45 2.52 2.55 2.56 2.60 2.83 2.74 2.76 2.95 2.78
0.06 0.06 0.07 0.10 0.18 0.36 0.77 1.29 1.51 1.19 0.87 0.71 0.76 0.74 0.72 0.73 0.80 0.88 0.90 0.97 1.02 1.00 1.16 1.29 1.40 1.52 1.59 1.60 1.69 1.56 1.67 1.76 1.98 2.09 2.08 1.98 1.93 2.12 2.28 2.35 2.45 2.51 2.48 2.57 2.74 2.60 2.79 2.87 2.77
0.07 0.07 0.08 0.12 0.14 0.23 0.56 0.90 0.92 1.03 0.89 0.68 0.73 0.74 0.70 0.66 0.70 0.83 0.85 0.93 0.95 0.93 1.04 1.22 1.43 1.53 1.44 1.44 1.46 1.55 1.65 1.82 1.91 1.90 1.95 1.97 1.98 2.10 2.23 2.33 2.41 2.43 2.46 2.61 2.71 2.55 2.70 2.70 2.81
0.09 0.10 0.11 0.14 0.17 0.17 0.29 0.50 0.54 0.62 0.75 0.98 0.94 0.76 0.75 0.81 0.78 0.86 0.86 0.89 0.89 0.89 0.95 1.08 1.28 1.44 1.48 1.46 1.53 1.67 1.76 1.86 1.93 1.85 1.93 2.14 2.17 2.20 2.28 2.38 2.48 2.39 2.48 2.64 2.58 2.56 2.62 2.68 2.67